| time (UTC) | temp F | wind direction | speed MPH | gust MPH | rain 1hr in | rain 24hr in | rain mn in | humidity % | barometer mb |
| 20260510180024 | 85 | 173 | 8.0 | 11.0 | 0.00 | 0.00 | 0.00 | 69 | 1014.8 |
| 20260510175531 | 85 | 166 | 7.0 | 11.0 | 0.00 | 0.00 | 0.00 | 69 | 1014.8 |
| 20260510175019 | 85 | 153 | 9.0 | 14.0 | 0.00 | 0.00 | 0.00 | 69 | 1014.9 |
| 20260510174606 | 84 | 132 | 8.0 | 13.0 | 0.00 | 0.00 | 0.00 | 71 | 1014.9 |
| 20260510174032 | 85 | 135 | 8.0 | 10.0 | 0.00 | 0.00 | 0.00 | 70 | 1015.0 |
| 20260510173521 | 85 | 138 | 8.0 | 11.0 | 0.00 | 0.00 | 0.00 | 70 | 1015.0 |
| 20260510173027 | 85 | 180 | 8.0 | 11.0 | 0.00 | 0.00 | 0.00 | 71 | 1015.0 |
| 20260510172535 | 85 | 171 | 8.0 | 13.0 | 0.00 | 0.00 | 0.00 | 70 | 1015.2 |
| 20260510172042 | 84 | 143 | 9.0 | 12.0 | 0.00 | 0.00 | 0.00 | 71 | 1015.3 |
| 20260510171549 | 85 | 131 | 8.0 | 10.0 | 0.00 | 0.00 | 0.00 | 71 | 1015.4 |
| 20260510171017 | 85 | 151 | 8.0 | 10.0 | 0.00 | 0.00 | 0.00 | 72 | 1015.5 |
| 20260510170524 | 85 | 148 | 8.0 | 11.0 | 0.00 | 0.00 | 0.00 | 72 | 1015.5 |
| 20260510170030 | 85 | 151 | 7.0 | 9.0 | 0.00 | 0.00 | 0.00 | 71 | 1015.5 |
| 20260510165518 | 85 | 144 | 7.0 | 10.0 | 0.00 | 0.00 | 0.00 | 72 | 1015.5 |
| 20260510165045 | 85 | 137 | 6.0 | 8.0 | 0.00 | 0.00 | 0.00 | 72 | 1015.5 |
| 20260510164532 | 85 | 145 | 5.0 | 9.0 | 0.00 | 0.00 | 0.00 | 73 | 1015.5 |
| 20260510164020 | 85 | 187 | 7.0 | 11.0 | 0.00 | 0.00 | 0.00 | 73 | 1015.5 |
| 20260510163527 | 85 | 119 | 6.0 | 7.0 | 0.00 | 0.00 | 0.00 | 73 | 1015.5 |
| 20260510163033 | 85 | 123 | 5.0 | 8.0 | 0.00 | 0.00 | 0.00 | 73 | 1015.5 |
| 20260510162521 | 84 | 116 | 5.0 | 9.0 | 0.00 | 0.00 | 0.00 | 72 | 1015.5 |
| 20260510162028 | 85 | 149 | 6.0 | 11.0 | 0.00 | 0.00 | 0.00 | 72 | 1015.5 |
| 20260510161516 | 85 | 145 | 6.0 | 8.0 | 0.00 | 0.00 | 0.00 | 72 | 1015.5 |
| 20260510161023 | 84 | 120 | 5.0 | 7.0 | 0.00 | 0.00 | 0.00 | 72 | 1015.5 |
| 20260510160550 | 84 | 151 | 6.0 | 9.0 | 0.00 | 0.00 | 0.00 | 71 | 1015.5 |
| 20260510160018 | 85 | 126 | 6.0 | 9.0 | 0.00 | 0.00 | 0.00 | 69 | 1015.5 |
| 20260510155524 | 85 | 187 | 6.0 | 8.0 | 0.00 | 0.00 | 0.00 | 70 | 1015.5 |
| 20260510155031 | 85 | 160 | 5.0 | 8.0 | 0.00 | 0.00 | 0.00 | 70 | 1015.5 |
| 20260510154600 | 86 | 89 | 5.0 | 7.0 | 0.00 | 0.00 | 0.00 | 70 | 1015.5 |
| 20260510154046 | 85 | 135 | 6.0 | 8.0 | 0.00 | 0.00 | 0.00 | 70 | 1015.5 |
| 20260510153533 | 86 | 130 | 5.0 | 6.0 | 0.00 | 0.00 | 0.00 | 69 | 1015.5 |
| 20260510153022 | 86 | 151 | 5.0 | 8.0 | 0.00 | 0.00 | 0.00 | 70 | 1015.5 |
| 20260510152548 | 86 | 101 | 4.0 | 6.0 | 0.00 | 0.00 | 0.00 | 69 | 1015.3 |
| 20260510152021 | 85 | 157 | 5.0 | 7.0 | 0.00 | 0.00 | 0.00 | 70 | 1015.3 |
| 20260510151523 | 85 | 137 | 4.0 | 7.0 | 0.00 | 0.00 | 0.00 | 69 | 1015.3 |
| 20260510151049 | 85 | 148 | 4.0 | 7.0 | 0.00 | 0.00 | 0.00 | 70 | 1015.3 |
| 20260510150558 | 84 | 174 | 4.0 | 6.0 | 0.00 | 0.00 | 0.00 | 71 | 1015.3 |
| 20260510150024 | 84 | 144 | 6.0 | 8.0 | 0.00 | 0.00 | 0.00 | 71 | 1015.3 |
| 20260510145611 | 83 | 156 | 5.0 | 7.0 | 0.00 | 0.00 | 0.00 | 72 | 1015.3 |
| 20260510145019 | 84 | 154 | 4.0 | 6.0 | 0.00 | 0.00 | 0.00 | 72 | 1015.2 |
| 20260510144525 | 83 | 158 | 4.0 | 6.0 | 0.00 | 0.00 | 0.00 | 74 | 1015.1 |
| 20260510144032 | 83 | 164 | 4.0 | 8.0 | 0.00 | 0.00 | 0.00 | 74 | 1015.1 |
| 20260510143520 | 82 | 174 | 4.0 | 6.0 | 0.00 | 0.00 | 0.00 | 75 | 1015.0 |
| 20260510143027 | 82 | 159 | 4.0 | 6.0 | 0.00 | 0.00 | 0.00 | 75 | 1015.0 |
| 20260510142536 | 81 | 154 | 4.0 | 5.0 | 0.00 | 0.00 | 0.00 | 76 | 1015.0 |
| 20260510142042 | 80 | 161 | 5.0 | 8.0 | 0.00 | 0.00 | 0.00 | 77 | 1014.9 |
| 20260510141529 | 80 | 143 | 5.0 | 7.0 | 0.00 | 0.00 | 0.00 | 78 | 1014.9 |
| 20260510141017 | 80 | 124 | 5.0 | 7.0 | 0.00 | 0.00 | 0.00 | 78 | 1014.8 |
| 20260510140524 | 80 | 135 | 5.0 | 7.0 | 0.00 | 0.00 | 0.00 | 78 | 1014.8 |
| 20260510140030 | 79 | 150 | 5.0 | 6.0 | 0.00 | 0.00 | 0.00 | 80 | 1014.6 |
| 20260510135519 | 79 | 155 | 5.0 | 7.0 | 0.00 | 0.00 | 0.00 | 80 | 1014.6 |
| 20260510135025 | 78 | 166 | 5.0 | 6.0 | 0.00 | 0.00 | 0.00 | 81 | 1014.5 |
| 20260510134532 | 77 | 165 | 4.0 | 6.0 | 0.00 | 0.00 | 0.00 | 82 | 1014.5 |
| 20260510134041 | 77 | 176 | 6.0 | 8.0 | 0.00 | 0.00 | 0.00 | 82 | 1014.4 |
| 20260510133527 | 77 | 159 | 5.0 | 6.0 | 0.00 | 0.00 | 0.00 | 83 | 1014.2 |
| 20260510133015 | 76 | 142 | 4.0 | 7.0 | 0.00 | 0.00 | 0.00 | 84 | 1014.2 |
| 20260510132521 | 76 | 157 | 5.0 | 7.0 | 0.00 | 0.00 | 0.00 | 85 | 1014.1 |
| 20260510132028 | 75 | 158 | 5.0 | 8.0 | 0.00 | 0.00 | 0.00 | 85 | 1014.1 |
| 20260510131537 | 75 | 137 | 5.0 | 7.0 | 0.00 | 0.00 | 0.00 | 86 | 1014.0 |
| 20260510131023 | 74 | 168 | 5.0 | 6.0 | 0.00 | 0.00 | 0.00 | 87 | 1013.8 |
| 20260510130550 | 74 | 141 | 6.0 | 7.0 | 0.00 | 0.00 | 0.00 | 87 | 1013.8 |
| 20260510130038 | 73 | 149 | 5.0 | 7.0 | 0.00 | 0.00 | 0.00 | 89 | 1013.6 |
| 20260510125525 | 73 | 139 | 5.0 | 7.0 | 0.00 | 0.00 | 0.00 | 90 | 1013.6 |
| 20260510125031 | 73 | 133 | 6.0 | 7.0 | 0.00 | 0.00 | 0.00 | 90 | 1013.5 |
| 20260510124520 | 72 | 166 | 5.0 | 7.0 | 0.00 | 0.00 | 0.00 | 91 | 1013.4 |
| 20260510124026 | 72 | 159 | 5.0 | 6.0 | 0.00 | 0.00 | 0.00 | 91 | 1013.4 |
| 20260510123533 | 72 | 136 | 4.0 | 7.0 | 0.00 | 0.00 | 0.00 | 92 | 1013.2 |
| 20260510123021 | 71 | 157 | 3.0 | 4.0 | 0.00 | 0.00 | 0.00 | 93 | 1013.2 |
| 20260510122528 | 70 | 148 | 4.0 | 5.0 | 0.00 | 0.00 | 0.00 | 94 | 1012.8 |
| 20260510122016 | 70 | 163 | 4.0 | 7.0 | 0.00 | 0.00 | 0.00 | 95 | 1012.7 |
| 20260510121523 | 69 | 154 | 4.0 | 6.0 | 0.00 | 0.00 | 0.00 | 96 | 1012.7 |
| 20260510121029 | 69 | 148 | 4.0 | 6.0 | 0.00 | 0.00 | 0.00 | 97 | 1012.7 |
| 20260510120517 | 69 | 180 | 4.0 | 5.0 | 0.00 | 0.00 | 0.00 | 98 | 1012.7 |
| 20260510120024 | 69 | 175 | 4.0 | 5.0 | 0.00 | 0.00 | 0.00 | 98 | 1012.7 |
| 20260510115531 | 69 | 171 | 4.0 | 6.0 | 0.00 | 0.00 | 0.00 | 98 | 1012.7 |
| 20260510115019 | 69 | 172 | 4.0 | 5.0 | 0.00 | 0.00 | 0.00 | 98 | 1012.6 |
| 20260510114526 | 69 | 154 | 3.0 | 5.0 | 0.00 | 0.00 | 0.00 | 98 | 1012.6 |
| 20260510114032 | 69 | 192 | 4.0 | 6.0 | 0.00 | 0.00 | 0.00 | 98 | 1012.6 |
| 20260510113521 | 69 | 175 | 3.0 | 5.0 | 0.00 | 0.00 | 0.00 | 98 | 1012.6 |
| 20260510113027 | 69 | 205 | 3.0 | 6.0 | 0.00 | 0.00 | 0.00 | 98 | 1012.6 |
| 20260510112515 | 68 | 190 | 3.0 | 6.0 | 0.00 | 0.00 | 0.00 | 98 | 1012.6 |
| 20260510112042 | 68 | 203 | 3.0 | 5.0 | 0.00 | 0.00 | 0.00 | 98 | 1012.6 |
| 20260510111529 | 68 | 180 | 3.0 | 5.0 | 0.00 | 0.00 | 0.00 | 98 | 1012.6 |
| 20260510111017 | 68 | 185 | 3.0 | 4.0 | 0.00 | 0.00 | 0.00 | 98 | 1012.7 |
| 20260510110524 | 68 | 189 | 2.0 | 3.0 | 0.00 | 0.00 | 0.00 | 97 | 1012.7 |
| 20260510110030 | 68 | 167 | 2.0 | 3.0 | 0.00 | 0.00 | 0.00 | 97 | 1012.4 |
| 20260510105519 | 68 | 213 | 2.0 | 5.0 | 0.00 | 0.00 | 0.00 | 97 | 1012.4 |
| 20260510105025 | 69 | 192 | 2.0 | 3.0 | 0.00 | 0.00 | 0.00 | 97 | 1012.3 |
| 20260510104532 | 69 | 216 | 1.0 | 3.0 | 0.00 | 0.00 | 0.00 | 96 | 1012.2 |
| 20260510104020 | 69 | 196 | 3.0 | 4.0 | 0.00 | 0.00 | 0.00 | 96 | 1012.2 |
| 20260510103527 | 69 | 201 | 2.0 | 3.0 | 0.00 | 0.00 | 0.00 | 96 | 1012.2 |
| 20260510103033 | 69 | 185 | 3.0 | 5.0 | 0.00 | 0.00 | 0.00 | 96 | 1012.2 |
| 20260510102522 | 69 | 203 | 2.0 | 3.0 | 0.00 | 0.00 | 0.00 | 96 | 1012.2 |
| 20260510102028 | 69 | 206 | 2.0 | 3.0 | 0.00 | 0.00 | 0.00 | 95 | 1012.2 |
| 20260510101517 | 70 | 220 | 1.0 | 3.0 | 0.00 | 0.00 | 0.00 | 94 | 1012.1 |
| 20260510101023 | 70 | 194 | 2.0 | 3.0 | 0.00 | 0.00 | 0.00 | 94 | 1011.8 |
| 20260510100530 | 70 | 181 | 3.0 | 6.0 | 0.00 | 0.00 | 0.00 | 93 | 1011.8 |
| 20260510100018 | 70 | 203 | 4.0 | 6.0 | 0.00 | 0.00 | 0.00 | 93 | 1011.8 |
| 20260510095525 | 70 | 207 | 4.0 | 7.0 | 0.00 | 0.00 | 0.00 | 93 | 1011.8 |
| 20260510095032 | 70 | 210 | 3.0 | 6.0 | 0.00 | 0.00 | 0.00 | 93 | 1011.8 |
| 20260510094520 | 71 | 175 | 3.0 | 4.0 | 0.00 | 0.00 | 0.00 | 93 | 1011.8 |
| 20260510094027 | 71 | 203 | 4.0 | 5.0 | 0.00 | 0.00 | 0.00 | 93 | 1011.8 |
| 20260510093533 | 71 | 195 | 4.0 | 6.0 | 0.00 | 0.00 | 0.00 | 93 | 1011.8 |
| 20260510093041 | 71 | 223 | 3.0 | 4.0 | 0.00 | 0.00 | 0.00 | 92 | 1011.8 |
| 20260510092528 | 71 | 201 | 4.0 | 7.0 | 0.00 | 0.00 | 0.00 | 92 | 1011.8 |
| 20260510092016 | 71 | 213 | 4.0 | 6.0 | 0.00 | 0.00 | 0.00 | 92 | 1011.8 |
| 20260510091523 | 71 | 198 | 3.0 | 6.0 | 0.00 | 0.00 | 0.00 | 92 | 1011.8 |
| 20260510091030 | 71 | 210 | 4.0 | 6.0 | 0.00 | 0.00 | 0.00 | 92 | 1011.8 |
| 20260510090518 | 71 | 179 | 4.0 | 6.0 | 0.00 | 0.00 | 0.00 | 91 | 1011.8 |
| 20260510090024 | 71 | 202 | 5.0 | 6.0 | 0.00 | 0.00 | 0.00 | 91 | 1011.7 |
| 20260510085551 | 71 | 177 | 5.0 | 7.0 | 0.00 | 0.00 | 0.00 | 91 | 1011.7 |
| 20260510085020 | 71 | 198 | 4.0 | 6.0 | 0.00 | 0.00 | 0.00 | 91 | 1011.8 |
| 20260510084526 | 71 | 163 | 4.0 | 7.0 | 0.00 | 0.00 | 0.00 | 90 | 1011.9 |
| 20260510084033 | 71 | 161 | 4.0 | 6.0 | 0.00 | 0.00 | 0.00 | 90 | 1011.9 |
| 20260510083521 | 71 | 174 | 4.0 | 5.0 | 0.00 | 0.00 | 0.00 | 90 | 1012.0 |
| 20260510083028 | 72 | 177 | 4.0 | 7.0 | 0.00 | 0.00 | 0.00 | 89 | 1012.0 |
| 20260510082516 | 72 | 194 | 5.0 | 9.0 | 0.00 | 0.00 | 0.00 | 89 | 1012.0 |
| 20260510082023 | 72 | 151 | 5.0 | 7.0 | 0.00 | 0.00 | 0.00 | 88 | 1012.0 |
| 20260510081529 | 72 | 197 | 5.0 | 8.0 | 0.00 | 0.00 | 0.00 | 88 | 1012.0 |
| 20260510081017 | 72 | 156 | 5.0 | 6.0 | 0.00 | 0.00 | 0.00 | 88 | 1012.0 |
| 20260510080524 | 72 | 147 | 6.0 | 8.0 | 0.00 | 0.00 | 0.00 | 87 | 1012.0 |
| 20260510080031 | 73 | 196 | 6.0 | 7.0 | 0.00 | 0.00 | 0.00 | 87 | 1012.4 |
| 20260510075519 | 73 | 196 | 6.0 | 9.0 | 0.00 | 0.00 | 0.00 | 86 | 1012.4 |
| 20260510075046 | 73 | 188 | 6.0 | 8.0 | 0.00 | 0.00 | 0.00 | 86 | 1012.4 |
| 20260510074532 | 73 | 152 | 5.0 | 6.0 | 0.00 | 0.00 | 0.00 | 86 | 1012.4 |
| 20260510074020 | 73 | 167 | 6.0 | 7.0 | 0.00 | 0.00 | 0.00 | 86 | 1012.4 |
| 20260510073527 | 73 | 157 | 5.0 | 7.0 | 0.00 | 0.00 | 0.00 | 86 | 1012.4 |
| 20260510073015 | 73 | 149 | 5.0 | 9.0 | 0.00 | 0.00 | 0.00 | 85 | 1012.4 |
| 20260510072522 | 73 | 163 | 5.0 | 6.0 | 0.00 | 0.00 | 0.00 | 85 | 1012.2 |
| 20260510072029 | 73 | 158 | 6.0 | 9.0 | 0.00 | 0.00 | 0.00 | 84 | 1012.2 |
| 20260510071517 | 73 | 148 | 6.0 | 8.0 | 0.00 | 0.00 | 0.00 | 84 | 1012.2 |
| 20260510071023 | 73 | 186 | 7.0 | 9.0 | 0.00 | 0.00 | 0.00 | 84 | 1012.2 |
| 20260510070530 | 74 | 174 | 6.0 | 8.0 | 0.00 | 0.00 | 0.00 | 83 | 1012.2 |
| 20260510070018 | 74 | 169 | 6.0 | 9.0 | 0.00 | 0.00 | 0.00 | 83 | 1012.2 |
| 20260510065525 | 74 | 160 | 7.0 | 9.0 | 0.00 | 0.00 | 0.00 | 82 | 1012.2 |
| 20260510065032 | 74 | 152 | 6.0 | 9.0 | 0.00 | 0.00 | 0.00 | 82 | 1012.2 |
| 20260510064520 | 74 | 156 | 6.0 | 8.0 | 0.00 | 0.00 | 0.00 | 82 | 1012.2 |
| 20260510064027 | 74 | 167 | 5.0 | 7.0 | 0.00 | 0.00 | 0.00 | 81 | 1012.2 |
| 20260510063533 | 74 | 161 | 5.0 | 7.0 | 0.00 | 0.00 | 0.00 | 81 | 1012.2 |
| 20260510063022 | 75 | 165 | 5.0 | 7.0 | 0.00 | 0.00 | 0.00 | 80 | 1012.2 |
| 20260510062528 | 75 | 164 | 5.0 | 8.0 | 0.00 | 0.00 | 0.00 | 80 | 1012.2 |
| 20260510062016 | 75 | 179 | 6.0 | 9.0 | 0.00 | 0.00 | 0.00 | 80 | 1012.2 |
| 20260510061523 | 75 | 170 | 6.0 | 9.0 | 0.00 | 0.00 | 0.00 | 80 | 1012.2 |
| 20260510061029 | 75 | 188 | 5.0 | 7.0 | 0.00 | 0.00 | 0.00 | 81 | 1012.2 |
| 20260510060518 | 75 | 140 | 5.0 | 7.0 | 0.00 | 0.00 | 0.00 | 81 | 1012.2 |
| 20260510060025 | 75 | 176 | 5.0 | 8.0 | 0.00 | 0.00 | 0.00 | 81 | 1012.0 |
| 20260510055019 | 75 | 164 | 5.0 | 7.0 | 0.00 | 0.00 | 0.00 | 82 | 1012.0 |
| 20260510054526 | 75 | 164 | 4.0 | 6.0 | 0.00 | 0.00 | 0.00 | 82 | 1012.0 |
| 20260510054033 | 75 | 170 | 5.0 | 7.0 | 0.00 | 0.00 | 0.00 | 83 | 1012.0 |
| 20260510053521 | 75 | 160 | 5.0 | 8.0 | 0.00 | 0.00 | 0.00 | 84 | 1012.0 |
| 20260510053027 | 75 | 156 | 4.0 | 6.0 | 0.00 | 0.00 | 0.00 | 85 | 1012.0 |
| 20260510052516 | 75 | 166 | 4.0 | 5.0 | 0.00 | 0.00 | 0.00 | 85 | 1012.1 |
| 20260510052022 | 76 | 176 | 4.0 | 6.0 | 0.00 | 0.00 | 0.00 | 85 | 1012.2 |
| 20260510051529 | 76 | 142 | 5.0 | 8.0 | 0.00 | 0.00 | 0.00 | 85 | 1012.2 |
| 20260510051017 | 76 | 132 | 3.0 | 5.0 | 0.00 | 0.00 | 0.00 | 84 | 1012.2 |
| 20260510050544 | 76 | 138 | 3.0 | 4.0 | 0.00 | 0.00 | 0.00 | 82 | 1012.2 |
| 20260510050030 | 76 | 139 | 3.0 | 5.0 | 0.00 | 0.00 | 0.00 | 82 | 1012.0 |
| 20260510045519 | 76 | 149 | 4.0 | 6.0 | 0.00 | 0.00 | 0.00 | 83 | 1012.0 |
| 20260510045026 | 76 | 148 | 3.0 | 5.0 | 0.00 | 0.00 | 0.00 | 85 | 1012.0 |
| 20260510044532 | 76 | 159 | 3.0 | 4.0 | 0.00 | 0.00 | 0.00 | 86 | 1012.0 |
| 20260510044020 | 76 | 138 | 3.0 | 5.0 | 0.00 | 0.00 | 0.00 | 86 | 1012.0 |
| 20260510043527 | 76 | 176 | 1.0 | 3.0 | 0.00 | 0.00 | 0.00 | 86 | 1012.0 |
| 20260510043015 | 76 | 164 | 2.0 | 3.0 | 0.00 | 0.00 | 0.00 | 86 | 1012.0 |
| 20260510042542 | 76 | 203 | 1.0 | 3.0 | 0.00 | 0.00 | 0.00 | 86 | 1011.9 |
| 20260510042029 | 77 | 152 | 1.0 | 3.0 | 0.00 | 0.00 | 0.00 | 85 | 1011.9 |
| 20260510041537 | 77 | 153 | 1.0 | 3.0 | 0.00 | 0.00 | 0.00 | 85 | 1012.0 |
| 20260510041024 | 77 | 158 | 2.0 | 2.0 | 0.00 | 0.00 | 0.00 | 85 | 1012.0 |
| 20260510040530 | 77 | 159 | 2.0 | 4.0 | 0.00 | 0.00 | 0.00 | 85 | 1012.0 |
| 20260510040018 | 77 | 163 | 3.0 | 4.0 | 0.00 | 0.00 | 0.00 | 85 | 1011.8 |
| 20260510035525 | 78 | 161 | 3.0 | 5.0 | 0.00 | 0.00 | 0.00 | 85 | 1011.8 |
| 20260510035031 | 78 | 161 | 3.0 | 5.0 | 0.00 | 0.00 | 0.00 | 85 | 1011.8 |
| 20260510034520 | 78 | 187 | 3.0 | 4.0 | 0.00 | 0.00 | 0.00 | 85 | 1011.8 |
| 20260510034026 | 78 | 169 | 2.0 | 3.0 | 0.00 | 0.00 | 0.00 | 84 | 1011.8 |
| 20260510033553 | 78 | 169 | 2.0 | 3.0 | 0.00 | 0.00 | 0.00 | 84 | 1011.7 |
| 20260510033043 | 78 | 170 | 3.0 | 4.0 | 0.00 | 0.00 | 0.00 | 83 | 1011.7 |
| 20260510032528 | 79 | 153 | 3.0 | 5.0 | 0.00 | 0.00 | 0.00 | 83 | 1011.7 |
| 20260510032016 | 79 | 146 | 3.0 | 5.0 | 0.00 | 0.00 | 0.00 | 83 | 1011.7 |
| 20260510031523 | 79 | 159 | 3.0 | 4.0 | 0.00 | 0.00 | 0.00 | 82 | 1011.5 |
| 20260510031029 | 79 | 148 | 3.0 | 4.0 | 0.00 | 0.00 | 0.00 | 81 | 1011.4 |
| 20260510030518 | 79 | 155 | 3.0 | 5.0 | 0.00 | 0.00 | 0.00 | 81 | 1011.4 |
| 20260510030024 | 79 | 149 | 4.0 | 5.0 | 0.00 | 0.00 | 0.00 | 80 | 1011.3 |
| 20260510025531 | 79 | 168 | 3.0 | 4.0 | 0.00 | 0.00 | 0.00 | 79 | 1011.3 |
| 20260510025019 | 80 | 161 | 4.0 | 6.0 | 0.00 | 0.00 | 0.00 | 79 | 1011.2 |
| 20260510024526 | 80 | 151 | 4.0 | 7.0 | 0.00 | 0.00 | 0.00 | 78 | 1011.1 |
| 20260510024032 | 79 | 154 | 4.0 | 6.0 | 0.00 | 0.00 | 0.00 | 77 | 1011.1 |
| 20260510023521 | 79 | 172 | 2.0 | 4.0 | 0.00 | 0.00 | 0.00 | 77 | 1010.9 |
| 20260510023028 | 80 | 167 | 2.0 | 4.0 | 0.00 | 0.00 | 0.00 | 76 | 1010.9 |
| 20260510022516 | 80 | 153 | 2.0 | 3.0 | 0.00 | 0.00 | 0.00 | 76 | 1010.7 |
| 20260510022203 | 80 | 174 | 1.0 | 3.0 | 0.00 | 0.00 | 0.00 | 76 | 1010.7 |
| 20260510021529 | 80 | 180 | 0.0 | 1.0 | 0.00 | 0.00 | 0.00 | 75 | 1010.6 |
| 20260510021017 | 81 | 201 | 1.0 | 3.0 | 0.00 | 0.00 | 0.00 | 74 | 1010.5 |
| 20260510020523 | 81 | 167 | 3.0 | 4.0 | 0.00 | 0.00 | 0.00 | 73 | 1010.5 |
| 20260510020031 | 81 | 155 | 3.0 | 4.0 | 0.00 | 0.00 | 0.00 | 73 | 1010.3 |
| 20260510015519 | 81 | 141 | 3.0 | 5.0 | 0.00 | 0.00 | 0.00 | 72 | 1010.3 |
| 20260510015025 | 82 | 157 | 3.0 | 5.0 | 0.00 | 0.00 | 0.00 | 72 | 1010.3 |
| 20260510014532 | 82 | 157 | 4.0 | 6.0 | 0.00 | 0.00 | 0.00 | 71 | 1010.3 |
| 20260510014020 | 82 | 167 | 4.0 | 6.0 | 0.00 | 0.00 | 0.00 | 71 | 1010.3 |
| 20260510013527 | 82 | 166 | 4.0 | 5.0 | 0.00 | 0.00 | 0.00 | 70 | 1010.1 |
| 20260510013033 | 83 | 138 | 4.0 | 5.0 | 0.00 | 0.00 | 0.00 | 69 | 1010.1 |
| 20260510012602 | 83 | 137 | 4.0 | 5.0 | 0.00 | 0.00 | 0.00 | 68 | 1010.1 |
| 20260510012028 | 83 | 139 | 4.0 | 7.0 | 0.00 | 0.00 | 0.00 | 68 | 1010.1 |
| 20260510011517 | 84 | 146 | 4.0 | 6.0 | 0.00 | 0.00 | 0.00 | 67 | 1010.1 |
| 20260510011023 | 84 | 136 | 4.0 | 7.0 | 0.00 | 0.00 | 0.00 | 66 | 1010.0 |
| 20260510010550 | 84 | 128 | 5.0 | 8.0 | 0.00 | 0.00 | 0.00 | 65 | 1010.0 |
| 20260510010058 | 85 | 138 | 5.0 | 7.0 | 0.00 | 0.00 | 0.00 | 64 | 1010.0 |
| 20260510005645 | 85 | 148 | 6.0 | 8.0 | 0.00 | 0.00 | 0.00 | 63 | 1010.0 |
| 20260510005031 | 85 | 139 | 5.0 | 8.0 | 0.00 | 0.00 | 0.00 | 62 | 1009.9 |
| 20260510004520 | 86 | 138 | 5.0 | 7.0 | 0.00 | 0.00 | 0.00 | 61 | 1009.8 |
| 20260510004026 | 86 | 128 | 5.0 | 7.0 | 0.00 | 0.00 | 0.00 | 61 | 1009.8 |
| 20260510003533 | 86 | 133 | 5.0 | 7.0 | 0.00 | 0.00 | 0.00 | 60 | 1009.7 |
| 20260510003041 | 87 | 138 | 5.0 | 6.0 | 0.00 | 0.00 | 0.00 | 59 | 1009.7 |
| 20260510002527 | 87 | 156 | 5.0 | 6.0 | 0.00 | 0.00 | 0.00 | 59 | 1009.6 |
| 20260510002036 | 87 | 155 | 5.0 | 6.0 | 0.00 | 0.00 | 0.00 | 58 | 1009.6 |
| 20260510001543 | 88 | 126 | 6.0 | 8.0 | 0.00 | 0.00 | 0.00 | 57 | 1009.5 |
| 20260510001029 | 88 | 136 | 5.0 | 7.0 | 0.00 | 0.00 | 0.00 | 57 | 1009.5 |
| 20260510000517 | 89 | 116 | 4.0 | 6.0 | 0.00 | 0.00 | 0.00 | 56 | 1009.5 |
| 20260510000024 | 89 | 123 | 4.0 | 6.0 | 0.00 | 0.00 | 0.00 | 55 | 1009.3 |
| 20260509235530 | 89 | 130 | 4.0 | 6.0 | 0.00 | 0.00 | 0.00 | 55 | 1009.3 |
| 20260509235039 | 89 | 143 | 5.0 | 7.0 | 0.00 | 0.00 | 0.00 | 55 | 1009.3 |
| 20260509234525 | 89 | 147 | 6.0 | 8.0 | 0.00 | 0.00 | 0.00 | 55 | 1009.3 |
| 20260509234032 | 89 | 127 | 5.0 | 7.0 | 0.00 | 0.00 | 0.00 | 54 | 1009.3 |
| 20260509233540 | 90 | 148 | 6.0 | 7.0 | 0.00 | 0.00 | 0.00 | 53 | 1009.3 |
| 20260509233047 | 90 | 155 | 5.0 | 7.0 | 0.00 | 0.00 | 0.00 | 53 | 1009.3 |
| 20260509232515 | 90 | 119 | 5.0 | 6.0 | 0.00 | 0.00 | 0.00 | 53 | 1009.2 |
| 20260509232022 | 90 | 144 | 6.0 | 8.0 | 0.00 | 0.00 | 0.00 | 52 | 1009.1 |
| 20260509231528 | 91 | 160 | 5.0 | 8.0 | 0.00 | 0.00 | 0.00 | 52 | 1009.1 |
| 20260509231017 | 91 | 136 | 5.0 | 7.0 | 0.00 | 0.00 | 0.00 | 51 | 1009.1 |
| 20260509230543 | 91 | 140 | 5.0 | 6.0 | 0.00 | 0.00 | 0.00 | 51 | 1009.1 |
| 20260509230030 | 91 | 135 | 5.0 | 6.0 | 0.00 | 0.00 | 0.00 | 50 | 1009.1 |
| 20260509225538 | 91 | 119 | 5.0 | 7.0 | 0.00 | 0.00 | 0.00 | 51 | 1009.1 |
| 20260509225025 | 90 | 137 | 5.0 | 6.0 | 0.00 | 0.00 | 0.00 | 50 | 1009.3 |
| 20260509224532 | 90 | 123 | 5.0 | 6.0 | 0.00 | 0.00 | 0.00 | 51 | 1009.3 |
| 20260509224020 | 91 | 109 | 5.0 | 7.0 | 0.00 | 0.00 | 0.00 | 52 | 1009.3 |
| 20260509223526 | 91 | 132 | 5.0 | 8.0 | 0.00 | 0.00 | 0.00 | 53 | 1009.1 |
| 20260509223033 | 92 | 176 | 3.0 | 6.0 | 0.00 | 0.00 | 0.00 | 55 | 1009.1 |
| 20260509222521 | 92 | 289 | 1.0 | 3.0 | 0.00 | 0.00 | 0.00 | 55 | 1009.2 |
| 20260509222028 | 91 | 109 | 4.0 | 6.0 | 0.00 | 0.00 | 0.00 | 56 | 1009.3 |
| 20260509221536 | 91 | 136 | 3.0 | 5.0 | 0.00 | 0.00 | 0.00 | 55 | 1009.3 |
| 20260509221023 | 92 | 259 | 2.0 | 3.0 | 0.00 | 0.00 | 0.00 | 54 | 1009.3 |
| 20260509220529 | 91 | 356 | 3.0 | 4.0 | 0.00 | 0.00 | 0.00 | 56 | 1009.3 |
| 20260509220017 | 91 | 302 | 1.0 | 5.0 | 0.00 | 0.00 | 0.00 | 56 | 1009.5 |
| 20260509215544 | 91 | 144 | 3.0 | 5.0 | 0.00 | 0.00 | 0.00 | 56 | 1009.5 |
| 20260509215031 | 91 | 26 | 3.0 | 4.0 | 0.00 | 0.00 | 0.00 | 56 | 1009.5 |
| 20260509214519 | 91 | 343 | 3.0 | 5.0 | 0.00 | 0.00 | 0.00 | 56 | 1009.6 |
| 20260509214026 | 91 | 193 | 2.0 | 4.0 | 0.00 | 0.00 | 0.00 | 57 | 1009.6 |
| 20260509213532 | 90 | 86 | 3.0 | 4.0 | 0.00 | 0.00 | 0.00 | 57 | 1009.7 |
| 20260509213021 | 90 | 60 | 3.0 | 5.0 | 0.00 | 0.00 | 0.00 | 58 | 1009.7 |
| 20260509212627 | 89 | 140 | 4.0 | 5.0 | 0.00 | 0.00 | 0.00 | 59 | 1009.8 |
| 20260509212036 | 90 | 136 | 5.0 | 6.0 | 0.00 | 0.00 | 0.00 | 58 | 1009.8 |
| 20260509211542 | 90 | 144 | 4.0 | 6.0 | 0.00 | 0.00 | 0.00 | 57 | 1009.8 |
| 20260509211029 | 89 | 24 | 5.0 | 8.0 | 0.00 | 0.00 | 0.00 | 57 | 1009.8 |
| 20260509210517 | 89 | 36 | 6.0 | 9.0 | 0.00 | 0.00 | 0.00 | 56 | 1009.8 |
| 20260509210024 | 90 | 103 | 6.0 | 8.0 | 0.00 | 0.00 | 0.00 | 56 | 1010.2 |
| 20260509205530 | 90 | 73 | 5.0 | 7.0 | 0.00 | 0.00 | 0.00 | 56 | 1010.2 |
| 20260509205018 | 89 | 117 | 4.0 | 7.0 | 0.00 | 0.00 | 0.00 | 56 | 1010.2 |
| 20260509204525 | 89 | 131 | 4.0 | 6.0 | 0.00 | 0.00 | 0.00 | 57 | 1010.3 |
| 20260509204031 | 89 | 137 | 6.0 | 9.0 | 0.00 | 0.00 | 0.00 | 59 | 1010.3 |
| 20260509203520 | 89 | 121 | 5.0 | 7.0 | 0.00 | 0.00 | 0.00 | 60 | 1010.5 |
| 20260509203026 | 88 | 93 | 4.0 | 7.0 | 0.00 | 0.00 | 0.00 | 58 | 1010.5 |
| 20260509202533 | 88 | 115 | 5.0 | 7.0 | 0.00 | 0.00 | 0.00 | 55 | 1010.7 |
| 20260509202041 | 85 | 144 | 7.0 | 9.0 | 0.00 | 0.00 | 0.00 | 57 | 1010.8 |
| 20260509201528 | 85 | 128 | 8.0 | 10.0 | 0.00 | 0.00 | 0.00 | 58 | 1010.8 |
| 20260509201016 | 87 | 146 | 6.0 | 13.0 | 0.00 | 0.00 | 0.00 | 63 | 1010.9 |
| 20260509200543 | 89 | 356 | 6.0 | 8.0 | 0.00 | 0.00 | 0.00 | 64 | 1010.9 |
| 20260509200030 | 89 | 20 | 6.0 | 8.0 | 0.00 | 0.00 | 0.00 | 63 | 1010.8 |
| 20260509195518 | 88 | 344 | 4.0 | 5.0 | 0.00 | 0.00 | 0.00 | 66 | 1010.8 |
| 20260509195024 | 89 | 4 | 4.0 | 7.0 | 0.00 | 0.00 | 0.00 | 64 | 1010.8 |
| 20260509194551 | 91 | 46 | 5.0 | 9.0 | 0.00 | 0.00 | 0.00 | 61 | 1010.8 |
| 20260509194040 | 90 | 67 | 3.0 | 5.0 | 0.00 | 0.00 | 0.00 | 59 | 1010.8 |
| 20260509193526 | 90 | 283 | 3.0 | 5.0 | 0.00 | 0.00 | 0.00 | 60 | 1010.9 |
| 20260509193033 | 89 | 309 | 4.0 | 8.0 | 0.00 | 0.00 | 0.00 | 60 | 1010.9 |
| 20260509192521 | 89 | 297 | 2.0 | 4.0 | 0.00 | 0.00 | 0.00 | 61 | 1010.9 |
| 20260509192027 | 88 | 313 | 6.0 | 9.0 | 0.00 | 0.00 | 0.00 | 64 | 1010.9 |
| 20260509191516 | 87 | 321 | 5.0 | 8.0 | 0.00 | 0.00 | 0.00 | 66 | 1010.9 |
| 20260509191023 | 89 | 337 | 6.0 | 7.0 | 0.00 | 0.00 | 0.00 | 65 | 1011.0 |
| 20260509190529 | 90 | 325 | 5.0 | 8.0 | 0.00 | 0.00 | 0.00 | 65 | 1011.0 |
| 20260509190017 | 91 | 284 | 4.0 | 7.0 | 0.00 | 0.00 | 0.00 | 60 | 1011.5 |
| 20260509185525 | 90 | 316 | 6.0 | 9.0 | 0.00 | 0.00 | 0.00 | 60 | 1011.5 |
| 20260509185030 | 89 | 305 | 2.0 | 5.0 | 0.00 | 0.00 | 0.00 | 64 | 1011.5 |
| 20260509184519 | 88 | 311 | 4.0 | 5.0 | 0.00 | 0.00 | 0.00 | 64 | 1011.5 |
| 20260509184025 | 90 | 258 | 3.0 | 5.0 | 0.00 | 0.00 | 0.00 | 62 | 1011.6 |
| 20260509183532 | 90 | 272 | 4.0 | 7.0 | 0.00 | 0.00 | 0.00 | 62 | 1011.7 |
| 20260509183020 | 88 | 184 | 1.0 | 3.0 | 0.00 | 0.00 | 0.00 | 65 | 1011.7 |
| 20260509182627 | 88 | 287 | 2.0 | 5.0 | 0.00 | 0.00 | 0.00 | 64 | 1011.7 |
| 20260509182015 | 88 | 277 | 3.0 | 4.0 | 0.00 | 0.00 | 0.00 | 64 | 1011.7 |
| 20260509181522 | 88 | 256 | 4.0 | 5.0 | 0.00 | 0.00 | 0.00 | 64 | 1011.9 |
| 20260509181028 | 87 | 210 | 3.0 | 5.0 | 0.00 | 0.00 | 0.00 | 66 | 1012.2 |
| 20260509180537 | 89 | 240 | 3.0 | 6.0 | 0.00 | 0.00 | 0.00 | 64 | 1012.2 |